Year,Month,Day,Hour,Minute,Value (Times are PST for temperature in C)
2012,11,17,00,00,7.00
2012,11,17,00,01,7.00
2012,11,17,00,02,7.10
2012,11,17,00,03,7.10
2012,11,17,00,04,7.10
2012,11,17,00,05,7.10
2012,11,17,00,06,7.10
2012,11,17,00,07,7.10
2012,11,17,00,08,7.20
2012,11,17,00,09,7.20
2012,11,17,00,10,7.20
2012,11,17,00,11,7.20
2012,11,17,00,12,7.20
2012,11,17,00,13,7.20
2012,11,17,00,14,7.30
2012,11,17,00,15,7.30
2012,11,17,00,16,7.30
2012,11,17,00,17,7.40
2012,11,17,00,18,7.40
2012,11,17,00,19,7.40
2012,11,17,00,20,7.40
2012,11,17,00,21,7.40
2012,11,17,00,22,7.50
2012,11,17,00,23,7.50
2012,11,17,00,24,7.50
2012,11,17,00,25,7.60
2012,11,17,00,26,7.60
2012,11,17,00,27,7.60
2012,11,17,00,28,7.60
2012,11,17,00,29,7.70
2012,11,17,00,30,7.70
2012,11,17,00,31,7.70
2012,11,17,00,32,7.70
2012,11,17,00,33,7.70
2012,11,17,00,34,7.70
2012,11,17,00,35,7.70
2012,11,17,00,36,7.70
2012,11,17,00,37,7.70
2012,11,17,00,38,7.70
2012,11,17,00,39,7.70
2012,11,17,00,40,7.70
2012,11,17,00,41,7.70
2012,11,17,00,42,7.70
2012,11,17,00,43,7.70
2012,11,17,00,44,7.70
2012,11,17,00,45,7.70
2012,11,17,00,46,7.70
2012,11,17,00,47,7.80
2012,11,17,00,48,7.80
2012,11,17,00,49,7.80
2012,11,17,00,50,7.80
2012,11,17,00,51,7.80
2012,11,17,00,52,7.80
2012,11,17,00,53,7.80
2012,11,17,00,54,7.90
2012,11,17,00,55,7.90
2012,11,17,00,56,7.90
2012,11,17,00,57,7.90
2012,11,17,00,58,7.90
2012,11,17,00,59,7.90
2012,11,17,01,00,8.00
2012,11,17,01,01,8.00
2012,11,17,01,02,8.00
2012,11,17,01,03,8.00
2012,11,17,01,04,8.10
2012,11,17,01,05,8.10
2012,11,17,01,06,8.10
2012,11,17,01,07,8.10
2012,11,17,01,08,8.10
2012,11,17,01,09,8.10
2012,11,17,01,10,8.10
2012,11,17,01,11,8.10
2012,11,17,01,12,8.10
2012,11,17,01,13,8.10
2012,11,17,01,14,8.10
2012,11,17,01,15,8.10
2012,11,17,01,16,8.10
2012,11,17,01,17,8.20
2012,11,17,01,18,8.20
2012,11,17,01,19,8.20
2012,11,17,01,20,8.20
2012,11,17,01,21,8.20
2012,11,17,01,22,8.20
2012,11,17,01,23,8.20
2012,11,17,01,24,8.20
2012,11,17,01,25,8.20
2012,11,17,01,26,8.20
2012,11,17,01,27,8.20
2012,11,17,01,28,8.20
2012,11,17,01,29,8.20
2012,11,17,01,30,8.20
2012,11,17,01,31,8.20
2012,11,17,01,32,8.20
2012,11,17,01,33,8.20
2012,11,17,01,34,8.10
2012,11,17,01,35,8.10
2012,11,17,01,36,8.10
2012,11,17,01,37,8.10
2012,11,17,01,38,8.10
2012,11,17,01,39,8.10
2012,11,17,01,40,8.10
2012,11,17,01,41,8.20
2012,11,17,01,42,8.20
2012,11,17,01,43,8.20
2012,11,17,01,44,8.20
2012,11,17,01,45,8.20
2012,11,17,01,46,8.20
2012,11,17,01,47,8.20
2012,11,17,01,48,8.20
2012,11,17,01,49,8.20
2012,11,17,01,50,8.20
2012,11,17,01,51,8.20
2012,11,17,01,52,8.20
2012,11,17,01,53,8.20
2012,11,17,01,54,8.30
2012,11,17,01,55,8.30
2012,11,17,01,56,8.30
2012,11,17,01,57,8.30
2012,11,17,01,58,8.30
2012,11,17,01,59,8.30
2012,11,17,02,00,8.30
2012,11,17,02,01,8.30
2012,11,17,02,02,8.30
2012,11,17,02,03,8.40
2012,11,17,02,04,8.40
2012,11,17,02,05,8.40
2012,11,17,02,06,8.40
2012,11,17,02,07,8.40
2012,11,17,02,08,8.40
2012,11,17,02,09,8.40
2012,11,17,02,10,8.40
2012,11,17,02,11,8.50
2012,11,17,02,12,8.50
2012,11,17,02,13,8.50
2012,11,17,02,14,8.60
2012,11,17,02,15,8.60
2012,11,17,02,16,8.60
2012,11,17,02,17,8.60
2012,11,17,02,18,8.60
2012,11,17,02,19,8.60
2012,11,17,02,20,8.60
2012,11,17,02,21,8.60
2012,11,17,02,22,8.70
2012,11,17,02,23,8.70
2012,11,17,02,24,8.80
2012,11,17,02,25,8.80
2012,11,17,02,26,8.80
2012,11,17,02,27,8.80
2012,11,17,02,28,8.90
2012,11,17,02,29,8.90
2012,11,17,02,30,8.90
2012,11,17,02,31,8.90
2012,11,17,02,32,8.90
2012,11,17,02,33,8.90
2012,11,17,02,34,9.00
2012,11,17,02,35,9.00
2012,11,17,02,36,9.00
2012,11,17,02,37,9.10
2012,11,17,02,38,9.00
2012,11,17,02,39,9.10
2012,11,17,02,40,9.10
2012,11,17,02,41,9.10
2012,11,17,02,42,9.10
2012,11,17,02,43,9.10
2012,11,17,02,44,9.20
2012,11,17,02,45,9.20
2012,11,17,02,46,9.30
2012,11,17,02,47,9.30
2012,11,17,02,48,9.40
2012,11,17,02,49,9.40
2012,11,17,02,50,9.40
2012,11,17,02,51,9.50
2012,11,17,02,52,9.60
2012,11,17,02,53,9.60
2012,11,17,02,54,9.60
2012,11,17,02,55,9.60
2012,11,17,02,56,9.60
2012,11,17,02,57,9.60
2012,11,17,02,58,9.50
2012,11,17,02,59,9.50
2012,11,17,03,00,9.40
2012,11,17,03,01,9.40
2012,11,17,03,02,9.30
2012,11,17,03,03,9.30
2012,11,17,03,04,9.30
2012,11,17,03,05,9.20
2012,11,17,03,06,9.20
2012,11,17,03,07,9.30
2012,11,17,03,08,9.30
2012,11,17,03,09,9.30
2012,11,17,03,10,9.30
2012,11,17,03,11,9.30
2012,11,17,03,12,9.30
2012,11,17,03,13,9.30
2012,11,17,03,14,9.30
2012,11,17,03,15,9.20
2012,11,17,03,16,9.20
2012,11,17,03,17,9.20
2012,11,17,03,18,9.20
2012,11,17,03,19,9.20
2012,11,17,03,20,9.20
2012,11,17,03,21,9.10
2012,11,17,03,22,9.10
2012,11,17,03,23,9.20
2012,11,17,03,24,9.20
2012,11,17,03,25,9.20
2012,11,17,03,26,9.20
2012,11,17,03,27,9.30
2012,11,17,03,28,9.30
2012,11,17,03,29,9.30
2012,11,17,03,30,9.30
2012,11,17,03,31,9.30
2012,11,17,03,32,9.30
2012,11,17,03,33,9.30
2012,11,17,03,34,9.30
2012,11,17,03,35,9.30
2012,11,17,03,36,9.40
2012,11,17,03,37,9.40
2012,11,17,03,38,9.30
2012,11,17,03,39,9.30
2012,11,17,03,40,9.30
2012,11,17,03,41,9.40
2012,11,17,03,42,9.40
2012,11,17,03,43,9.40
2012,11,17,03,44,9.40
2012,11,17,03,45,9.40
2012,11,17,03,46,9.40
2012,11,17,03,47,9.40
2012,11,17,03,48,9.40
2012,11,17,03,49,9.40
2012,11,17,03,50,9.40
2012,11,17,03,51,9.50
2012,11,17,03,52,9.50
2012,11,17,03,53,9.60
2012,11,17,03,54,9.60
2012,11,17,03,55,9.60
2012,11,17,03,56,9.60
2012,11,17,03,57,9.70
2012,11,17,03,58,9.70
2012,11,17,03,59,9.80
2012,11,17,04,00,9.80
2012,11,17,04,01,9.90
2012,11,17,04,02,9.90
2012,11,17,04,03,10.00
2012,11,17,04,04,10.10
2012,11,17,04,05,10.10
2012,11,17,04,06,10.20
2012,11,17,04,07,10.20
2012,11,17,04,08,10.20
2012,11,17,04,09,10.30
2012,11,17,04,10,10.30
2012,11,17,04,11,10.30
2012,11,17,04,12,10.30
2012,11,17,04,13,10.30
2012,11,17,04,14,10.30
2012,11,17,04,15,10.30
2012,11,17,04,16,10.30
2012,11,17,04,17,10.20
2012,11,17,04,18,10.20
2012,11,17,04,19,10.10
2012,11,17,04,20,10.10
2012,11,17,04,21,10.00
2012,11,17,04,22,10.00
2012,11,17,04,23,10.00
2012,11,17,04,24,9.90
2012,11,17,04,25,9.90
2012,11,17,04,26,9.80
2012,11,17,04,27,9.80
2012,11,17,04,28,9.80
2012,11,17,04,29,9.70
2012,11,17,04,30,9.70
2012,11,17,04,31,9.70
2012,11,17,04,32,9.70
2012,11,17,04,33,9.70
2012,11,17,04,34,9.70
2012,11,17,04,35,9.70
2012,11,17,04,36,9.70
2012,11,17,04,37,9.70
2012,11,17,04,38,9.70
2012,11,17,04,39,9.80
2012,11,17,04,40,9.80
2012,11,17,04,41,9.80
2012,11,17,04,42,9.70
2012,11,17,04,43,9.70
2012,11,17,04,44,9.70
2012,11,17,04,45,9.70
2012,11,17,04,46,9.70
2012,11,17,04,47,9.70
2012,11,17,04,48,9.70
2012,11,17,04,49,9.70
2012,11,17,04,50,9.70
2012,11,17,04,51,9.70
2012,11,17,04,52,9.70
2012,11,17,04,53,9.70
2012,11,17,04,54,9.70
2012,11,17,04,55,9.70
2012,11,17,04,56,9.70
2012,11,17,04,57,9.70
2012,11,17,04,58,9.70
2012,11,17,04,59,9.70
2012,11,17,05,00,9.70
2012,11,17,05,01,9.70
2012,11,17,05,02,9.60
2012,11,17,05,03,9.60
2012,11,17,05,04,9.60
2012,11,17,05,05,9.70
2012,11,17,05,06,9.70
2012,11,17,05,07,9.70
2012,11,17,05,08,9.80
2012,11,17,05,09,9.80
2012,11,17,05,10,9.80
2012,11,17,05,11,9.80
2012,11,17,05,12,9.80
2012,11,17,05,13,9.80
2012,11,17,05,14,9.80
2012,11,17,05,15,9.80
2012,11,17,05,16,9.80
2012,11,17,05,17,9.80
2012,11,17,05,18,9.80
2012,11,17,05,19,9.80
2012,11,17,05,20,9.70
2012,11,17,05,21,9.70
2012,11,17,05,22,9.70
2012,11,17,05,23,9.70
2012,11,17,05,24,9.70
2012,11,17,05,25,9.70
2012,11,17,05,26,9.70
2012,11,17,05,27,9.70
2012,11,17,05,28,9.70
2012,11,17,05,29,9.80
2012,11,17,05,30,9.80
2012,11,17,05,31,9.80
2012,11,17,05,32,9.80
2012,11,17,05,33,9.80
2012,11,17,05,34,9.80
2012,11,17,05,35,9.80
2012,11,17,05,36,9.80
2012,11,17,05,37,9.80
2012,11,17,05,38,9.80
2012,11,17,05,39,9.80
2012,11,17,05,40,9.80
2012,11,17,05,41,9.80
2012,11,17,05,42,9.80
2012,11,17,05,43,9.80
2012,11,17,05,44,9.80
2012,11,17,05,45,9.80
2012,11,17,05,46,9.80
2012,11,17,05,47,9.80
2012,11,17,05,48,9.90
2012,11,17,05,49,9.90
2012,11,17,05,50,9.90
2012,11,17,05,51,10.00
2012,11,17,05,52,10.00
2012,11,17,05,53,10.00
2012,11,17,05,54,10.00
2012,11,17,05,55,10.00
2012,11,17,05,56,9.90
2012,11,17,05,57,9.90
2012,11,17,05,58,9.90
2012,11,17,05,59,9.90
2012,11,17,06,00,9.90
2012,11,17,06,01,9.90
2012,11,17,06,02,9.90
2012,11,17,06,03,9.90
2012,11,17,06,04,9.90
2012,11,17,06,05,9.80
2012,11,17,06,06,9.80
2012,11,17,06,07,9.80
2012,11,17,06,08,9.80
2012,11,17,06,09,9.80
2012,11,17,06,10,9.80
2012,11,17,06,11,9.80
2012,11,17,06,12,9.80
2012,11,17,06,13,9.80
2012,11,17,06,14,9.80
2012,11,17,06,15,9.80
2012,11,17,06,16,9.80
2012,11,17,06,17,9.80
2012,11,17,06,18,9.80
2012,11,17,06,19,9.80
2012,11,17,06,20,9.80
2012,11,17,06,21,9.80
2012,11,17,06,22,9.80
2012,11,17,06,23,9.80
2012,11,17,06,24,9.80
2012,11,17,06,25,9.80
2012,11,17,06,26,9.80
2012,11,17,06,27,9.80
2012,11,17,06,28,9.80
2012,11,17,06,29,9.70
2012,11,17,06,30,9.70
2012,11,17,06,31,9.70
2012,11,17,06,32,9.70
2012,11,17,06,33,9.70
2012,11,17,06,34,9.70
2012,11,17,06,35,9.80
2012,11,17,06,36,9.80
2012,11,17,06,37,9.80
2012,11,17,06,38,9.80
2012,11,17,06,39,9.80
2012,11,17,06,40,9.80
2012,11,17,06,41,9.80
2012,11,17,06,42,9.80
2012,11,17,06,43,9.80
2012,11,17,06,44,9.90
2012,11,17,06,45,10.00
2012,11,17,06,46,10.00
2012,11,17,06,47,10.10
2012,11,17,06,48,10.10
2012,11,17,06,49,10.10
2012,11,17,06,50,10.10
2012,11,17,06,51,10.00
2012,11,17,06,52,9.90
2012,11,17,06,53,9.80
2012,11,17,06,54,9.70
2012,11,17,06,55,9.70
2012,11,17,06,56,9.70
2012,11,17,06,57,9.70
2012,11,17,06,58,9.70
2012,11,17,06,59,9.70
2012,11,17,07,00,9.70
2012,11,17,07,01,9.70
2012,11,17,07,02,9.70
2012,11,17,07,03,9.60
2012,11,17,07,04,9.60
2012,11,17,07,05,9.50
2012,11,17,07,06,9.50
2012,11,17,07,07,9.50
2012,11,17,07,08,9.50
2012,11,17,07,09,9.40
2012,11,17,07,10,9.40
2012,11,17,07,11,9.40
2012,11,17,07,12,9.40
2012,11,17,07,13,9.50
2012,11,17,07,14,9.50
2012,11,17,07,15,9.50
2012,11,17,07,16,9.60
2012,11,17,07,17,9.60
2012,11,17,07,18,9.60
2012,11,17,07,19,9.60
2012,11,17,07,20,9.60
2012,11,17,07,21,9.60
2012,11,17,07,22,9.60
2012,11,17,07,23,9.60
2012,11,17,07,24,9.60
2012,11,17,07,25,9.60
2012,11,17,07,26,9.50
2012,11,17,07,27,9.50
2012,11,17,07,28,9.40
2012,11,17,07,29,9.40
2012,11,17,07,30,9.40
2012,11,17,07,31,9.30
2012,11,17,07,32,9.20
2012,11,17,07,33,9.10
2012,11,17,07,34,9.00
2012,11,17,07,35,9.00
2012,11,17,07,36,8.90
2012,11,17,07,37,8.80
2012,11,17,07,38,8.70
2012,11,17,07,39,8.70
2012,11,17,07,40,8.70
2012,11,17,07,41,8.60
2012,11,17,07,42,8.60
2012,11,17,07,43,8.60
2012,11,17,07,44,8.50
2012,11,17,07,45,8.50
2012,11,17,07,46,8.50
2012,11,17,07,47,8.50
2012,11,17,07,48,8.50
2012,11,17,07,49,8.40
2012,11,17,07,50,8.40
2012,11,17,07,51,8.40
2012,11,17,07,52,8.40
2012,11,17,07,53,8.40
2012,11,17,07,54,8.40
2012,11,17,07,55,8.40
2012,11,17,07,56,8.40
2012,11,17,07,57,8.40
2012,11,17,07,58,8.40
2012,11,17,07,59,8.40
2012,11,17,08,00,8.40
2012,11,17,08,01,8.40
2012,11,17,08,02,8.40
2012,11,17,08,03,8.40
2012,11,17,08,04,8.40
2012,11,17,08,05,8.40
2012,11,17,08,06,8.40
2012,11,17,08,07,8.40
2012,11,17,08,08,8.40
2012,11,17,08,09,8.40
2012,11,17,08,10,8.40
2012,11,17,08,11,8.40
2012,11,17,08,12,8.40
2012,11,17,08,13,8.40
2012,11,17,08,14,8.40
2012,11,17,08,15,8.40
2012,11,17,08,16,8.40
2012,11,17,08,17,8.40
2012,11,17,08,18,8.40
2012,11,17,08,19,8.40
2012,11,17,08,20,8.40
2012,11,17,08,21,8.40
2012,11,17,08,22,8.30
2012,11,17,08,23,8.30
2012,11,17,08,24,8.30
2012,11,17,08,25,8.30
2012,11,17,08,26,8.30
2012,11,17,08,27,8.30
2012,11,17,08,28,8.30
2012,11,17,08,29,8.30
2012,11,17,08,30,8.30
2012,11,17,08,31,8.30
2012,11,17,08,32,8.30
2012,11,17,08,33,8.30
2012,11,17,08,34,8.30
2012,11,17,08,35,8.30
2012,11,17,08,36,8.30
2012,11,17,08,37,8.30
2012,11,17,08,38,8.30
2012,11,17,08,39,8.30
2012,11,17,08,40,8.30
2012,11,17,08,41,8.30
2012,11,17,08,42,8.30
2012,11,17,08,43,8.30
2012,11,17,08,44,8.30
2012,11,17,08,45,8.30
2012,11,17,08,46,8.20
2012,11,17,08,47,8.20
2012,11,17,08,48,8.20
2012,11,17,08,49,8.20
2012,11,17,08,50,8.20
2012,11,17,08,51,8.20
2012,11,17,08,52,8.20
2012,11,17,08,53,8.10
2012,11,17,08,54,8.10
2012,11,17,08,55,8.10
2012,11,17,08,56,8.10
2012,11,17,08,57,8.10
2012,11,17,08,58,8.10
2012,11,17,08,59,8.10
2012,11,17,09,00,8.10
2012,11,17,09,01,8.10
2012,11,17,09,02,8.10
2012,11,17,09,03,8.00
2012,11,17,09,04,8.00
2012,11,17,09,05,8.00
2012,11,17,09,06,8.00
2012,11,17,09,07,8.00
2012,11,17,09,08,8.00
2012,11,17,09,09,8.00
2012,11,17,09,10,8.00
2012,11,17,09,11,8.00
2012,11,17,09,12,8.00
2012,11,17,09,13,8.00
2012,11,17,09,14,8.00
2012,11,17,09,15,8.00
2012,11,17,09,16,8.00
2012,11,17,09,17,8.00
2012,11,17,09,18,8.00
2012,11,17,09,19,8.00
2012,11,17,09,20,8.00
2012,11,17,09,21,8.00
2012,11,17,09,22,8.00
2012,11,17,09,23,8.00
2012,11,17,09,24,8.00
2012,11,17,09,25,8.00
2012,11,17,09,26,8.00
2012,11,17,09,27,8.00
2012,11,17,09,28,8.00
2012,11,17,09,29,8.00
2012,11,17,09,30,8.00
2012,11,17,09,31,8.00
2012,11,17,09,32,8.00
2012,11,17,09,33,8.00
2012,11,17,09,34,7.90
2012,11,17,09,35,7.90
2012,11,17,09,36,7.90
2012,11,17,09,37,7.90
2012,11,17,09,38,7.90
2012,11,17,09,39,7.90
2012,11,17,09,40,7.90
2012,11,17,09,41,7.90
2012,11,17,09,42,7.90
2012,11,17,09,43,7.90
2012,11,17,09,44,7.90
2012,11,17,09,45,7.90
2012,11,17,09,46,7.90
2012,11,17,09,47,7.90
2012,11,17,09,48,7.90
2012,11,17,09,49,7.90
2012,11,17,09,50,7.90
2012,11,17,09,51,7.80
2012,11,17,09,52,7.80
2012,11,17,09,53,7.80
2012,11,17,09,54,7.80
2012,11,17,09,55,7.80
2012,11,17,09,56,7.80
2012,11,17,09,57,7.80
2012,11,17,09,58,7.80
2012,11,17,09,59,7.80
2012,11,17,10,00,7.80
2012,11,17,10,01,7.80
2012,11,17,10,02,7.80
2012,11,17,10,03,7.80
2012,11,17,10,04,7.80
2012,11,17,10,05,7.80
2012,11,17,10,06,7.80
2012,11,17,10,07,7.80
2012,11,17,10,08,7.80
2012,11,17,10,09,7.80
2012,11,17,10,10,7.80
2012,11,17,10,11,7.80
2012,11,17,10,12,7.80
2012,11,17,10,13,7.80
2012,11,17,10,14,7.80
2012,11,17,10,15,7.80
2012,11,17,10,16,7.70
2012,11,17,10,17,7.70
2012,11,17,10,18,7.70
2012,11,17,10,19,7.70
2012,11,17,10,20,7.70
2012,11,17,10,21,7.70
2012,11,17,10,22,7.70
2012,11,17,10,23,7.70
2012,11,17,10,24,7.70
2012,11,17,10,25,7.60
2012,11,17,10,26,7.60
2012,11,17,10,27,7.60
2012,11,17,10,28,7.60
2012,11,17,10,29,7.60
2012,11,17,10,30,7.60
2012,11,17,10,31,7.60
2012,11,17,10,32,7.60
2012,11,17,10,33,7.60
2012,11,17,10,34,7.70
2012,11,17,10,35,7.70
2012,11,17,10,36,7.70
2012,11,17,10,37,7.70
2012,11,17,10,38,7.70
2012,11,17,10,39,7.70
2012,11,17,10,40,7.80
2012,11,17,10,41,7.80
2012,11,17,10,42,7.80
2012,11,17,10,43,7.80
2012,11,17,10,44,7.80
2012,11,17,10,45,7.80
2012,11,17,10,46,7.80
2012,11,17,10,47,7.80
2012,11,17,10,48,7.90
2012,11,17,10,49,7.90
2012,11,17,10,50,7.90
2012,11,17,10,51,7.90
2012,11,17,10,52,7.90
2012,11,17,10,53,7.90
2012,11,17,10,54,7.90
2012,11,17,10,55,7.90
2012,11,17,10,56,7.90
2012,11,17,10,57,7.90
2012,11,17,10,58,7.80
2012,11,17,10,59,7.80
2012,11,17,11,00,7.80
2012,11,17,11,01,7.80
2012,11,17,11,02,7.80
2012,11,17,11,03,7.80
2012,11,17,11,04,7.80
2012,11,17,11,05,7.70
2012,11,17,11,06,7.70
2012,11,17,11,07,7.70
2012,11,17,11,08,7.70
2012,11,17,11,09,7.70
2012,11,17,11,10,7.60
2012,11,17,11,11,7.60
2012,11,17,11,12,7.60
2012,11,17,11,13,7.50
2012,11,17,11,14,7.50
2012,11,17,11,15,7.40
2012,11,17,11,16,7.40
2012,11,17,11,17,7.30
2012,11,17,11,18,7.20
2012,11,17,11,19,7.20
2012,11,17,11,20,7.20
2012,11,17,11,21,7.20
2012,11,17,11,22,7.20
2012,11,17,11,23,7.20
2012,11,17,11,24,7.20
2012,11,17,11,25,7.20
2012,11,17,11,26,7.20
2012,11,17,11,27,7.20
2012,11,17,11,28,7.20
2012,11,17,11,29,7.20
2012,11,17,11,30,7.30
2012,11,17,11,31,7.30
2012,11,17,11,32,7.30
2012,11,17,11,33,7.30
2012,11,17,11,34,7.30
2012,11,17,11,35,7.30
2012,11,17,11,36,7.30
2012,11,17,11,37,7.20
2012,11,17,11,38,7.20
2012,11,17,11,39,7.20
2012,11,17,11,40,7.20
2012,11,17,11,41,7.10
2012,11,17,11,42,7.10
2012,11,17,11,43,7.10
2012,11,17,11,44,7.10
2012,11,17,11,45,7.10
2012,11,17,11,46,7.10
2012,11,17,11,47,7.10
2012,11,17,11,48,7.00
2012,11,17,11,49,7.00
2012,11,17,11,50,7.00
2012,11,17,11,51,7.00
2012,11,17,11,52,7.00
2012,11,17,11,53,7.00
2012,11,17,11,54,6.90
2012,11,17,11,55,6.90
2012,11,17,11,56,6.90
2012,11,17,11,57,6.90
2012,11,17,11,58,6.80
2012,11,17,11,59,6.80
2012,11,17,12,00,6.80
2012,11,17,12,01,6.80
2012,11,17,12,02,6.70
2012,11,17,12,03,6.70
2012,11,17,12,04,6.70
2012,11,17,12,05,6.70
2012,11,17,12,06,6.60
2012,11,17,12,07,6.60
2012,11,17,12,08,6.60
2012,11,17,12,09,6.60
2012,11,17,12,10,6.50
2012,11,17,12,11,6.50
2012,11,17,12,12,6.50
2012,11,17,12,13,6.50
2012,11,17,12,14,6.50
2012,11,17,12,15,6.50
2012,11,17,12,16,6.50
2012,11,17,12,17,6.50
2012,11,17,12,18,6.60
2012,11,17,12,19,6.60
2012,11,17,12,20,6.60
2012,11,17,12,21,6.60
2012,11,17,12,22,6.60
2012,11,17,12,23,6.60
2012,11,17,12,24,6.60
2012,11,17,12,25,6.60
2012,11,17,12,26,6.60
2012,11,17,12,27,6.60
2012,11,17,12,28,6.70
2012,11,17,12,29,6.70
2012,11,17,12,30,6.70
2012,11,17,12,31,6.70
2012,11,17,12,32,6.70
2012,11,17,12,33,6.70
2012,11,17,12,34,6.70
2012,11,17,12,35,6.70
2012,11,17,12,36,6.70
2012,11,17,12,37,6.70
2012,11,17,12,38,6.70
2012,11,17,12,39,6.70
2012,11,17,12,40,6.70
2012,11,17,12,41,6.70
2012,11,17,12,42,6.80
2012,11,17,12,43,6.80
2012,11,17,12,44,6.80
2012,11,17,12,45,6.80
2012,11,17,12,46,6.80
2012,11,17,12,47,6.80
2012,11,17,12,48,6.80
2012,11,17,12,49,6.80
2012,11,17,12,50,6.80
2012,11,17,12,51,6.90
2012,11,17,12,52,6.90
2012,11,17,12,53,6.90
2012,11,17,12,54,6.90
2012,11,17,12,55,6.90
2012,11,17,12,56,6.90
2012,11,17,12,57,6.90
2012,11,17,12,58,7.00
2012,11,17,12,59,7.00
2012,11,17,13,00,7.00
2012,11,17,13,01,7.00
2012,11,17,13,02,7.10
2012,11,17,13,03,7.10
2012,11,17,13,04,7.10
2012,11,17,13,05,7.10
2012,11,17,13,06,7.10
2012,11,17,13,07,7.10
2012,11,17,13,08,7.10
2012,11,17,13,09,7.10
2012,11,17,13,10,7.10
2012,11,17,13,11,7.10
2012,11,17,13,12,7.10
2012,11,17,13,13,7.10
2012,11,17,13,14,7.00
2012,11,17,13,15,7.00
2012,11,17,13,16,7.00
2012,11,17,13,17,7.00
2012,11,17,13,18,7.00
2012,11,17,13,19,7.00
2012,11,17,13,20,7.00
2012,11,17,13,21,7.00
2012,11,17,13,22,7.00
2012,11,17,13,23,7.00
2012,11,17,13,24,6.90
2012,11,17,13,25,6.90
2012,11,17,13,26,6.90
2012,11,17,13,27,6.90
2012,11,17,13,28,6.90
2012,11,17,13,29,6.90
2012,11,17,13,30,6.90
2012,11,17,13,31,6.90
2012,11,17,13,32,6.90
2012,11,17,13,33,6.90
2012,11,17,13,34,6.90
2012,11,17,13,35,6.80
2012,11,17,13,36,6.80
2012,11,17,13,37,6.80
2012,11,17,13,38,6.80
2012,11,17,13,39,6.80
2012,11,17,13,40,6.80
2012,11,17,13,41,6.80
2012,11,17,13,42,6.80
2012,11,17,13,43,6.80
2012,11,17,13,44,6.80
2012,11,17,13,45,6.80
2012,11,17,13,46,6.80
2012,11,17,13,47,6.80
2012,11,17,13,48,6.70
2012,11,17,13,49,6.70
2012,11,17,13,50,6.70
2012,11,17,13,51,6.70
2012,11,17,13,52,6.70
2012,11,17,13,53,6.70
2012,11,17,13,54,6.70
2012,11,17,13,55,6.70
2012,11,17,13,56,6.70
2012,11,17,13,57,6.70
2012,11,17,13,58,6.60
2012,11,17,13,59,6.60
2012,11,17,14,00,6.60
2012,11,17,14,01,6.60
2012,11,17,14,02,6.60
2012,11,17,14,03,6.60
2012,11,17,14,04,6.60
2012,11,17,14,05,6.60
2012,11,17,14,06,6.50
2012,11,17,14,07,6.50
2012,11,17,14,08,6.50
2012,11,17,14,09,6.50
2012,11,17,14,10,6.50
2012,11,17,14,11,6.60
2012,11,17,14,12,6.50
2012,11,17,14,13,6.60
2012,11,17,14,14,6.60
2012,11,17,14,15,6.60
2012,11,17,14,16,6.60
2012,11,17,14,17,6.60
2012,11,17,14,18,6.60
2012,11,17,14,19,6.60
2012,11,17,14,20,6.60
2012,11,17,14,21,6.60
2012,11,17,14,22,6.60
2012,11,17,14,23,6.60
2012,11,17,15,30,7.30
2012,11,17,15,31,7.30
2012,11,17,15,32,7.30
2012,11,17,15,33,7.30
2012,11,17,15,34,7.40
2012,11,17,15,35,7.30
2012,11,17,15,36,7.30
2012,11,17,15,37,7.30
2012,11,17,15,38,7.30
2012,11,17,15,39,7.30
2012,11,17,15,40,7.30
2012,11,17,15,41,7.20
2012,11,17,15,42,7.20
2012,11,17,15,43,7.20
2012,11,17,15,44,7.20
2012,11,17,15,45,7.10
2012,11,17,15,46,7.10
2012,11,17,15,47,7.10
2012,11,17,15,48,7.10
2012,11,17,15,49,7.00
2012,11,17,15,50,7.00
2012,11,17,15,51,7.00
2012,11,17,15,52,6.90
2012,11,17,15,53,6.90
2012,11,17,15,54,6.90
2012,11,17,15,55,6.90
2012,11,17,15,56,6.80
2012,11,17,15,57,6.80
2012,11,17,15,58,6.80
2012,11,17,15,59,6.80
2012,11,17,16,00,6.80
2012,11,17,16,01,6.80
2012,11,17,16,02,6.70
2012,11,17,16,03,6.70
2012,11,17,16,04,6.70
2012,11,17,16,05,6.70
2012,11,17,16,06,6.70
2012,11,17,16,07,6.70
2012,11,17,16,08,6.70
2012,11,17,16,09,6.70
2012,11,17,16,10,6.70
2012,11,17,16,11,6.70
2012,11,17,16,12,6.70
2012,11,17,16,13,6.70
2012,11,17,16,14,6.70
2012,11,17,16,15,6.70
2012,11,17,16,16,6.70
2012,11,17,16,17,6.70
2012,11,17,16,18,6.80
2012,11,17,16,19,6.80
2012,11,17,16,20,6.80
2012,11,17,16,21,6.80
2012,11,17,16,22,6.80
2012,11,17,16,23,6.70
2012,11,17,16,24,6.70
2012,11,17,16,25,6.70
2012,11,17,16,26,6.70
2012,11,17,16,27,6.70
2012,11,17,16,28,6.70
2012,11,17,16,29,6.70
2012,11,17,16,30,6.70
2012,11,17,16,31,6.70
2012,11,17,16,32,6.70
2012,11,17,16,33,6.70
2012,11,17,16,34,6.70
2012,11,17,16,35,6.70
2012,11,17,16,36,6.70
2012,11,17,16,37,6.70
2012,11,17,16,38,6.60
2012,11,17,16,39,6.50
2012,11,17,16,40,6.40
2012,11,17,16,41,6.40
2012,11,17,16,42,6.40
2012,11,17,16,43,6.30
2012,11,17,16,44,6.30
2012,11,17,16,45,6.30
2012,11,17,16,46,6.20
2012,11,17,16,47,6.20
2012,11,17,16,48,6.20
2012,11,17,16,49,6.20
2012,11,17,16,50,6.20
2012,11,17,16,51,6.10
2012,11,17,16,52,6.10
2012,11,17,16,53,6.10
2012,11,17,16,54,6.10
2012,11,17,16,55,6.10
2012,11,17,16,56,6.10
2012,11,17,16,57,6.10
2012,11,17,16,58,6.00
2012,11,17,16,59,6.00
2012,11,17,17,00,6.00
2012,11,17,17,01,5.90
2012,11,17,17,02,5.90
2012,11,17,17,03,5.90
2012,11,17,17,04,5.90
2012,11,17,17,05,5.80
2012,11,17,17,06,5.80
2012,11,17,17,07,5.80
2012,11,17,17,08,5.80
2012,11,17,17,09,5.80
2012,11,17,17,10,5.80
2012,11,17,17,11,5.80
2012,11,17,17,12,5.80
2012,11,17,17,13,5.80
2012,11,17,17,14,5.80
2012,11,17,17,15,5.80
2012,11,17,17,16,5.70
2012,11,17,17,17,5.70
2012,11,17,17,18,5.70
2012,11,17,17,19,5.70
2012,11,17,17,20,5.70
2012,11,17,17,21,5.70
2012,11,17,17,22,5.70
2012,11,17,17,23,5.70
2012,11,17,17,24,5.60
2012,11,17,17,25,5.60
2012,11,17,17,26,5.60
2012,11,17,17,27,5.50
2012,11,17,17,28,5.50
2012,11,17,17,29,5.50
2012,11,17,17,30,5.50
2012,11,17,17,31,5.50
2012,11,17,17,32,5.50
2012,11,17,17,33,5.50
2012,11,17,17,34,5.40
2012,11,17,17,35,5.40
2012,11,17,17,36,5.40
2012,11,17,17,37,5.30
2012,11,17,17,38,5.30
2012,11,17,17,39,5.30
2012,11,17,17,40,5.30
2012,11,17,17,41,5.30
2012,11,17,17,42,5.30
2012,11,17,17,43,5.30
2012,11,17,17,44,5.30
2012,11,17,17,45,5.30
2012,11,17,17,46,5.30
2012,11,17,17,47,5.20
2012,11,17,17,48,5.20
2012,11,17,17,49,5.20
2012,11,17,17,50,5.20
2012,11,17,17,51,5.20
2012,11,17,17,52,5.20
2012,11,17,17,53,5.20
2012,11,17,17,54,5.20
2012,11,17,17,55,5.20
2012,11,17,17,56,5.20
2012,11,17,17,57,5.20
2012,11,17,17,58,5.20
2012,11,17,17,59,5.20
2012,11,17,18,00,5.20
2012,11,17,18,01,5.20
2012,11,17,18,02,5.20
2012,11,17,18,03,5.20
2012,11,17,18,04,5.20
2012,11,17,18,05,5.20
2012,11,17,18,06,5.20
2012,11,17,18,07,5.20
2012,11,17,18,08,5.20
2012,11,17,18,09,5.20
2012,11,17,18,10,5.20
2012,11,17,18,11,5.20
2012,11,17,18,12,5.20
2012,11,17,18,13,5.20
2012,11,17,18,14,5.20
2012,11,17,18,15,5.20
2012,11,17,18,16,5.20
2012,11,17,18,17,5.20
2012,11,17,18,18,5.30
2012,11,17,18,19,5.30
2012,11,17,18,20,5.30
2012,11,17,18,21,5.30
2012,11,17,18,22,5.30
2012,11,17,18,23,5.30
2012,11,17,18,24,5.30
2012,11,17,18,25,5.40
2012,11,17,18,26,5.40
2012,11,17,18,27,5.40
2012,11,17,18,28,5.40
2012,11,17,18,29,5.40
2012,11,17,18,30,5.40
2012,11,17,18,31,5.40
2012,11,17,18,32,5.30
2012,11,17,18,33,5.30
2012,11,17,18,34,5.30
2012,11,17,18,35,5.30
2012,11,17,18,36,5.30
2012,11,17,18,37,5.30
2012,11,17,18,38,5.30
2012,11,17,18,39,5.30
2012,11,17,18,40,5.30
2012,11,17,18,41,5.30
2012,11,17,18,42,5.30
2012,11,17,18,43,5.30
2012,11,17,18,44,5.30
2012,11,17,18,45,5.30
2012,11,17,18,46,5.30
2012,11,17,18,47,5.30
2012,11,17,18,48,5.20
2012,11,17,18,49,5.20
2012,11,17,18,50,5.20
2012,11,17,18,51,5.20
2012,11,17,18,52,5.20
2012,11,17,18,53,5.20
2012,11,17,18,54,5.20
2012,11,17,18,55,5.20
2012,11,17,18,56,5.20
2012,11,17,18,57,5.20
2012,11,17,18,58,5.20
2012,11,17,18,59,5.20
2012,11,17,19,00,5.20
2012,11,17,19,01,5.20
2012,11,17,19,02,5.30
2012,11,17,19,03,5.30
2012,11,17,19,04,5.30
2012,11,17,19,05,5.30
2012,11,17,19,06,5.40
2012,11,17,19,07,5.40
2012,11,17,19,08,5.40
2012,11,17,19,09,5.40
2012,11,17,19,10,5.40
2012,11,17,19,11,5.40